Location: Montbazon
(47.2835°N, 0.6999°E)
Time: 23:22:49
(UTC+00:00)

COSMO-SKYMED 1 - Visible Passes

Search period start: 15 February 2026 00:00
Search period end: 25 February 2026 00:00
Orbit: 577 x 579 km, 97.9° (Epoch: 15 February)

Date Brightness Start Highest point End Pass type
(mag) Time Alt. Az. Time Alt. Az. Time Alt. Az.
15 Feb 3.8 04:53:26 10° SE 04:57:17 40° ENE 05:01:09 10° N visible
15 Feb 3.7 06:29:39 10° SW 06:32:43 20° W 06:35:48 10° NW visible
15 Feb 2.8 18:06:05 10° NNE 18:10:02 44° E 18:13:57 10° S visible
15 Feb 5.1 19:42:01 10° NNW 19:45:01 20° WNW 19:48:00 10° WSW visible
16 Feb 3.6 04:57:43 10° SE 05:01:37 44° ENE 05:05:33 10° N visible
16 Feb 2.6 18:10:24 10° NNE 18:14:24 49° E 18:18:22 10° S visible
16 Feb 5.2 19:46:30 10° NNW 19:49:20 18° WNW 19:52:09 10° WSW visible
17 Feb 3.3 05:02:00 10° SE 05:05:57 49° ENE 05:09:57 10° N visible
17 Feb 2.5 18:14:42 10° NNE 18:18:45 54° E 18:22:47 10° S visible
17 Feb 5.3 19:50:59 10° NNW 19:53:38 17° WNW 19:56:15 10° WSW visible
18 Feb 3.1 05:06:16 10° SSE 05:10:17 55° ENE 05:14:19 10° N visible
18 Feb 2.4 18:19:01 10° NNE 18:23:07 60° ESE 18:27:10 10° S visible
18 Feb 5.4 19:55:30 10° NNW 19:57:55 15° WNW 20:00:20 10° W visible
19 Feb 2.9 05:10:34 10° SSE 05:14:37 61° ENE 05:18:40 10° N visible
19 Feb 2.4 18:23:20 10° NNE 18:27:27 68° ESE 18:31:32 10° S visible
19 Feb 5.5 20:00:02 10° NNW 20:02:12 14° WNW 20:04:22 10° W visible
20 Feb 2.7 05:14:51 10° SSE 05:18:55 68° ENE 05:23:01 10° N visible
20 Feb 2.3 18:27:39 10° NNE 18:31:47 75° ESE 18:35:52 10° S visible
20 Feb 5.6 20:04:35 10° NNW 20:06:29 13° WNW 20:08:21 10° W visible
21 Feb 2.6 05:19:09 10° SSE 05:23:14 75° ENE 05:27:22 10° N visible
21 Feb 2.3 18:31:58 10° NNE 18:36:06 83° ESE 18:40:12 10° SSW visible
21 Feb 5.7 20:09:14 10° NW 20:10:44 12° WNW 20:12:15 10° W visible
22 Feb 5.8 03:52:29 10° ENE 03:53:00 10° ENE 03:53:31 10° NE visible
22 Feb 2.5 05:23:27 10° SSE 05:27:33 83° ENE 05:31:41 10° NNW visible
22 Feb 2.4 18:36:16 10° NNE 18:40:25 88° WNW 18:44:31 10° SSW visible
22 Feb 5.8 20:13:59 10° NW 20:15:00 11° WNW 20:16:00 10° WNW visible
23 Feb 5.7 03:56:00 10° ENE 03:57:15 11° ENE 03:58:30 10° NE visible
23 Feb 2.4 05:27:45 10° SSE 05:31:52 88° W 05:36:00 10° NNW visible
23 Feb 2.5 18:40:35 10° N 18:44:43 80° WNW 18:48:49 10° SSW visible
24 Feb 5.7 03:59:49 10° E 04:01:30 12° ENE 04:03:10 10° NE visible
24 Feb 2.3 05:32:04 10° S 05:36:10 80° WSW 05:40:18 10° NNW visible
24 Feb 2.7 18:44:53 10° N 18:49:01 72° WNW 18:53:05 10° SSW visible
